Showing default

ION-SCV-022, 66682

Orbit data source: Space-Track

ION-SCV-022, 66682 is a payload satellite owned by D-ORBIT (IT) in SSO that was launched on Fri, 28 Nov 2025 UTC via an FALCON 9 launch vehicle from the Air Force Western Test Range (AFWTR). Payload-class satellites include a variety of spacecraft equipped with specific instruments for various scientific and technological missions. These include communications satellites like Starlink; space stations such as the ISS; scientific satellites like the Hubble; Earth observation satellites from companies like Planet Labs, Umbra, and HawkEye 360; GPS; miniature CubeSats for education and research; and military/defense satellites.

Loading next visibility...
Identifier
66682, 2025-276S
Orbit
SSO
Country
Flag of ITIT
Related business
Manufacturer
D-ORBIT
Mission
Operational Commercial Technology
Bus & Motor
ION-SC, PM200
Mass
220 kg wet, 150 kg dry
Launch date (UTC)
2025-11-28 (6 months ago)
Launch vehicle
FALCON 9
Launch site
Air Force Western Test Range (AFWTR)
Object type
Payload
Rocket body
Debris
Shape & HBR
Box, 0.2 m
Radar Cross Section
0.240 m²

Expand to show TLE details & history
Last TLE update: 13 hours ago

TLE from 13 hours ago
0 ION-SCV-022
1 66682U 25276S   26144.65743996  .00000556  00000-0  52514-4 0  9993
2 66682  97.5295 216.1813 0003381 241.8996 118.1885 14.97482891 26556
Epoch: 2026-05-24T15:46Z
TLE epoch observation values (Epoch: 2026-05-24T15:46:42.812Z)
Latitude
-0.00003°
Longitude
97.24648°
Altitude
578.844 km
Speed
7.571 km/s
True Right ascension
14h 24m 43s
True Declination
0° 00' 00"
Sunlit
Object was in full shadow at epoch
Visualization orbit readout
Latitude
Unknown
Longitude
Unknown
Altitude
Unknown
Speed
Unknown
Apparent Right ascension
Unknown
Apparent Declination
Unknown
Sunlit
N/A
Visualization observer readout
Local Sidereal Time
14:11:46
Azimuth
Unknown
Elevation
Unknown
Doppler factor
Unknown
Orbital elements
Apogee altitude
574.028 km
Perigee altitude
569.328 km
Semi-major axis
6,949.815 km
Eccentricity
0.00034
Inclination
97.5295°
RAAN
216.1813°
Arg. of periapsis
241.8996°
True anomaly
118.22264°
Mean anomaly
118.1885°
Eccentric anomaly
118.20557°
Mean motion
3.74613 °/min
Orbital period
96.1 mins
BSTAR
0.000052514
Loading maneuver chart data...
Computing Atmospheric mass density...
Loading historical data...
Loading historical data...
Loading historical data...
Loading historical data...
Loading historical data...
Loading historical data...
Loading historical data...

Documentation

Showing up to 5 results
|